Flag for Canada Weather past 2 weeks in Creston, British Columbia, Canada

Now
35 °F

Chilly.


Feels Like: 31 °F
Forecast: 10 / 40 °F
Wind: 5 mph from Northwest

Location: Creston

Current Time: Mar 4, 2015 at 4:31:21 PM

Latest Report: Mar 4, 2015 at 3:00 PM


Visibility: N/A

Pressure: 30.33 "Hg

Humidity: 46%

Dew point: 16 °F

Location of CrestonLocation

Historic Weather in Creston — Graph

°F

Creston temperature yesterday

Maximum temperature yesterday: 34 °F (at 5:00 PM)
Minimum temperature yesterday: 21 °F (at 7:00 AM)
Average temperature yesterday: 27 °F

Past Weeks' High & Low Weather Summary

 TemperatureHumidityPressure
High47 °F (Feb 25, 5:00 PM)96% (Feb 19, 9:00 PM)30.60 "Hg (Feb 19, 9:00 PM)
Low18 °F (Mar 4, 7:00 AM)22% (Feb 21, 3:00 PM)29.96 "Hg (Feb 27, 5:00 AM)
Average33 °F60%30.27 "Hg
* Reported Feb 17 3:00 PM — Mar 4 3:00 PM, Creston, Weather by CustomWeather, © 2015

Note: Actual official high and low records may vary slightly from our data, if they occured in-between our weather recording intervals... More about our weather records

Advertising

Creston weather history for previous 24 hours

 ConditionsComfort  
Time TempWeatherWind HumidityBarometerVisibility
3:00 PM
Wed, Mar 4
35 °FChilly.5 mph46%30.33 "HgN/A
2:00 PM36 °FChilly.2 mph46%30.34 "HgN/A
1:00 PM31 °FChilly.3 mph51%30.37 "HgN/A
12:00 PM29 °FChilly.5 mph52%30.39 "HgN/A
11:00 AM29 °FChilly.2 mph52%30.40 "HgN/A
10:00 AM24 °FCold.2 mph59%30.41 "HgN/A
9:00 AM22 °FCold.3 mph64%30.41 "HgN/A
8:00 AM18 °FCold.3 mph66%30.39 "HgN/A
7:00 AM18 °FCold.5 mph65%30.37 "HgN/A
6:00 AM19 °FCold.3 mph63%30.35 "HgN/A
5:00 AM20 °FCold.3 mph61%30.34 "HgN/A
4:00 AM21 °FCold.7 mph66%30.34 "HgN/A
3:00 AM22 °FCold.5 mph62%30.34 "HgN/A
2:00 AM24 °FCold.3 mph58%30.32 "HgN/A
1:00 AM24 °FCold.2 mph62%30.31 "HgN/A
12:00 AM25 °FChilly.3 mph59%30.29 "HgN/A
11:00 PM
Tue, Mar 3
25 °FChilly.3 mph60%30.28 "HgN/A
10:00 PM27 °FChilly.2 mph56%30.26 "HgN/A
9:00 PM28 °FChilly.3 mph57%30.24 "HgN/A
8:00 PM28 °FChilly.5 mph56%30.24 "HgN/A
7:00 PM29 °FChilly.3 mph48%30.22 "HgN/A
6:00 PM32 °FChilly.3 mph44%30.21 "HgN/A
5:00 PM34 °FChilly.6 mph43%30.21 "HgN/A
4:00 PM34 °FChilly.5 mph42%30.21 "HgN/A
Weather by CustomWeather, © 2015

See weather overviewHow to use our weather pages